Regional Weather Roundup
Issued by NWS

Home | Current Version | Previous Version | Graphics & Text | Print | Product List | Glossary On
Versions: 1 2 3 4 5 6 7 8 9 10 11 12 13 14 15 16 17 18 19 20 21 22 23 24 25 26 27 28 29 30 31 32 33 34 35 36 37 38 39 40 41 42 43 44 45 46 47 48 49 50
843
ASUS43 KLSX 221059
RWRMO

WEATHER SUMMARY FOR MISSOURI
NATIONAL WEATHER SERVICE SPRINGFIELD MO
600 AM CDT FRI MAY 22 2015

NOTE: "FAIR" INDICATES FEW OR NO CLOUDS BELOW 12,000 FEET WITH NO
       SIGNIFICANT WEATHER AND/OR OBSTRUCTIONS TO VISIBILITY.
       CURRENT SKY AND/OR WEATHER CONDITIONS ARE NOT AVAILABLE FOR
       CHILLICOTHE AND FARMINGTON.

MOZ001>031-035>038-043-044-053-054-221200-
...NORTHERN AND WESTERN MISSOURI...

CITY           SKY/WX    TMP DP  RH WIND       PRES   REMARKS
KANSAS CTY INT PTCLDY    47  43  86 CALM      30.22S
KANSAS C DTWN  CLEAR     51  46  83 CALM      30.22S
LEE`S SUMMIT   CLEAR     48  44  86 SW3       30.23R
ST JOSEPH      MOCLDY    47  44  90 NE5       30.23R
KIRKSVILLE     CLEAR     51  43  74 W8        30.20R

$$
MOZ066>068-077>081-088>096-101>105-221200-
...SOUTHWEST MISSOURI...

CITY           SKY/WX    TMP DP  RH WIND       PRES   REMARKS
SPRINGFIELD    PTCLDY    45  41  86 S5        30.24R
JOPLIN         PTCLDY    46  44  93 SE5       30.24S

$$
MOZ032>034-039>042-045>050-055>058-069>072-221200-
...CENTRAL MISSOURI...

CITY           SKY/WX    TMP DP  RH WIND       PRES   REMARKS
COLUMBIA       CLEAR     47  43  86 SW7       30.23R
JEFFERSON CITY CLEAR     46  44  93 CALM      30.24R
ROLLA          CLEAR     43  41  93 SW7       30.23R
SEDALIA        CLEAR     52  43  71 W3        30.25R
OSAGE BEACH    CLEAR     43  37  81 CALM      30.25R

$$
MOZ051-052-059>065-221200-
...EAST CENTRAL MISSOURI...

CITY           SKY/WX    TMP DP  RH WIND       PRES   REMARKS
ST LOUIS INTL  PTCLDY    53  43  68 W7        30.21S
SPIRIT OF STL  PTCLDY    46  44  93 CALM      30.21R
ST CHARLES     CLEAR     47  43  86 SW9       30.20S

$$
MOZ072>076-082>087-097>100-106>115-221200-
...SOUTH CENTRAL AND SOUTHEAST MISSOURI...

CITY           SKY/WX    TMP DP  RH WIND       PRES   REMARKS
CAPE GIRARDEAU CLEAR     43  43 100 CALM      30.26S FOG
FARMINGTON     CLEAR     39  39 100 CALM      30.28R
POPLAR BLUFF   CLEAR     44  42  93 CALM      30.26R
WEST PLAINS    CLEAR     40  37  89 CALM      30.26R

$$



USA.gov is the U.S. government's official web portal to all federal, state and local government web resources and services.